• In Belarus
  • List of Countries
  • For 7 days
  • Water Temperature
  • Satellite Maps
  • Weather Map
  • Weather Widgets
  • user-avatar
    Login

    Hourly Weather Witoszyce

    Today, 20 February, Wednesday

    Time Temperature Precipitation Wind Pressure Humidity
    00:00 +3°C° 0 mm 5 mps 754 mmHg 84%
    01:00 +3°C° 0 mm 5 mps 754 mmHg 84%
    02:00 +3°C° 0 mm 5 mps 754 mmHg 85%
    03:00 +2°C° 0 mm 5 mps 754 mmHg 86%
    04:00 +2°C° 0 mm 5 mps 754 mmHg 88%
    05:00 +2°C° 0 mm 5 mps 755 mmHg 88%
    06:00 +2°C° 0 mm 5 mps 755 mmHg 88%
    07:00 +2°C° 0 mm 5 mps 755 mmHg 88%
    08:00 +2°C° 0 mm 5 mps 755 mmHg 85%
    09:00 +3°C° 0 mm 6 mps 756 mmHg 82%
    10:00 +3°C° 0 mm 6 mps 756 mmHg 79%
    11:00 +4°C° 0 mm 6 mps 757 mmHg 76%
    12:00 +5°C° 0 mm 6 mps 757 mmHg 72%
    13:00 +5°C° 0 mm 6 mps 757 mmHg 68%
    14:00 +6°C° 0 mm 5 mps 757 mmHg 68%
    15:00 +6°C° 0 mm 4 mps 757 mmHg 68%
    16:00 +6°C° 0 mm 4 mps 757 mmHg 68%
    17:00 +7°C° 0 mm 3 mps 758 mmHg 71%
    18:00 +7°C° 0 mm 3 mps 758 mmHg 74%
    19:00 +5°C° 0 mm 3 mps 758 mmHg 77%
    20:00 +5°C° 0 mm 3 mps 759 mmHg 78%
    21:00 +5°C° 0 mm 3 mps 759 mmHg 80%
    22:00 +5°C° 0 mm 3 mps 759 mmHg 81%
    23:00 +5°C° 0 mm 3 mps 759 mmHg 82%

    Tomorrow, 21 February, Thursday

    Time Temperature Precipitation Wind Pressure Humidity
    00:00 +4°C° 0 mm 3 mps 759 mmHg 83%
    01:00 +4°C° 0 mm 3 mps 759 mmHg 84%
    02:00 +4°C° 0 mm 3 mps 759 mmHg 83%
    03:00 +4°C° 0 mm 3 mps 759 mmHg 83%
    04:00 +3°C° 0 mm 3 mps 759 mmHg 82%
    05:00 +4°C° 0.1 mm 4 mps 759 mmHg 82%
    06:00 +4°C° 0.1 mm 4 mps 758 mmHg 81%
    07:00 +3°C° 0.1 mm 5 mps 758 mmHg 81%
    08:00 +3°C° 0.6 mm 5 mps 758 mmHg 81%
    09:00 +4°C° 0.6 mm 6 mps 758 mmHg 81%
    10:00 +4°C° 0.6 mm 6 mps 758 mmHg 80%
    11:00 +4°C° 0.3 mm 6 mps 758 mmHg 79%
    12:00 +5°C° 0.3 mm 7 mps 758 mmHg 77%
    13:00 +5°C° 0.3 mm 7 mps 757 mmHg 76%
    14:00 +6°C° 0.4 mm 7 mps 757 mmHg 77%
    15:00 +7°C° 0.4 mm 6 mps 757 mmHg 79%
    16:00 +7°C° 0.4 mm 6 mps 757 mmHg 80%
    17:00 +7°C° 0.2 mm 6 mps 757 mmHg 82%
    18:00 +7°C° 0.2 mm 6 mps 757 mmHg 84%
    19:00 +7°C° 0.2 mm 6 mps 757 mmHg 85%
    20:00 +7°C° 0.1 mm 6 mps 757 mmHg 86%
    21:00 +7°C° 0.1 mm 6 mps 758 mmHg 87%
    22:00 +7°C° 0.1 mm 6 mps 758 mmHg 88%
    23:00 +7°C° 0.1 mm 6 mps 758 mmHg 88%

    Day after tomorrow, 22 February, Friday

    Time Temperature Precipitation Wind Pressure Humidity
    00:00 +7°C° 0.1 mm 6 mps 758 mmHg 88%
    01:00 +7°C° 0.1 mm 6 mps 758 mmHg 88%
    02:00 +7°C° 0.1 mm 6 mps 758 mmHg 87%
    03:00 +7°C° 0.1 mm 6 mps 759 mmHg 86%
    04:00 +5°C° 0.1 mm 7 mps 759 mmHg 85%
    05:00 +4°C° 0.1 mm 6 mps 760 mmHg 84%
    06:00 +3°C° 0.1 mm 6 mps 761 mmHg 83%
    07:00 +2°C° 0.1 mm 6 mps 762 mmHg 82%
    08:00 +1°C° 0 mm 6 mps 763 mmHg 78%
    09:00 +1°C° 0 mm 5 mps 764 mmHg 73%
    10:00 0°C° 0 mm 5 mps 765 mmHg 69%
    11:00 +1°C° 0 mm 5 mps 765 mmHg 62%
    12:00 +1°C° 0 mm 5 mps 766 mmHg 55%
    13:00 +3°C° 0 mm 4 mps 767 mmHg 49%
    14:00 +1°C° 0 mm 4 mps 767 mmHg 48%
    15:00 +1°C° 0 mm 4 mps 768 mmHg 48%
    16:00 +1°C° 0 mm 4 mps 768 mmHg 48%
    17:00 0°C° 0 mm 4 mps 769 mmHg 51%
    18:00 0°C° 0 mm 3 mps 770 mmHg 55%
    19:00 -1°C° 0 mm 3 mps 770 mmHg 59%
    20:00 -2°C° 0 mm 3 mps 771 mmHg 59%
    21:00 -2°C° 0 mm 3 mps 771 mmHg 60%
    22:00 -2°C° 0 mm 2 mps 772 mmHg 60%
    23:00 -3°C° 0 mm 2 mps 772 mmHg 59%

    23 February, Saturday

    Time Temperature Precipitation Wind Pressure Humidity
    00:00 -3°C° 0 mm 2 mps 772 mmHg 59%
    01:00 -3°C° 0 mm 2 mps 773 mmHg 58%
    02:00 -3°C° 0 mm 2 mps 773 mmHg 57%
    03:00 -3°C° 0 mm 2 mps 772 mmHg 55%
    04:00 -3°C° 0 mm 2 mps 772 mmHg 54%
    05:00 -3°C° 0 mm 2 mps 772 mmHg 54%
    06:00 -3°C° 0 mm 2 mps 772 mmHg 53%
    07:00 -2°C° 0 mm 1 mps 773 mmHg 52%
    08:00 -3°C° 0 mm 2 mps 773 mmHg 47%
    09:00 -2°C° 0 mm 2 mps 773 mmHg 41%
    10:00 -1°C° 0 mm 3 mps 773 mmHg 35%
    11:00 +1°C° 0 mm 3 mps 773 mmHg 32%
    12:00 +2°C° 0 mm 3 mps 772 mmHg 30%
    13:00 +3°C° 0 mm 3 mps 772 mmHg 27%
    14:00 +4°C° 0 mm 2 mps 772 mmHg 29%
    15:00 +4°C° 0 mm 2 mps 771 mmHg 31%
    16:00 +4°C° 0 mm 2 mps 771 mmHg 33%
    17:00 +3°C° 0 mm 2 mps 771 mmHg 36%
    18:00 +1°C° 0 mm 2 mps 771 mmHg 39%
    19:00 +1°C° 0 mm 1 mps 771 mmHg 42%
    20:00 -1°C° 0 mm 2 mps 771 mmHg 42%
    21:00 -1°C° 0 mm 2 mps 771 mmHg 43%
    22:00 -1°C° 0 mm 2 mps 771 mmHg 44%
    23:00 -1°C° 0 mm 2 mps 770 mmHg 44%

    24 February, Sunday

    Time Temperature Precipitation Wind Pressure Humidity
    00:00 +1°C° 0 mm 1 mps 770 mmHg 44%
    01:00 +1°C° 0 mm 1 mps 770 mmHg 44%
    02:00 +1°C° 0 mm 1 mps 770 mmHg 44%
    03:00 +1°C° 0 mm 1 mps 769 mmHg 43%
    04:00 +1°C° 0 mm 1 mps 769 mmHg 43%
    05:00 +1°C° 0 mm 1 mps 769 mmHg 43%
    06:00 +1°C° 0 mm 1 mps 769 mmHg 43%
    07:00 +1°C° 0 mm 1 mps 769 mmHg 43%
    08:00 +3°C° 0 mm 1 mps 769 mmHg 40%
    09:00 +3°C° 0 mm 2 mps 769 mmHg 37%
    10:00 +5°C° 0 mm 2 mps 769 mmHg 34%
    11:00 +6°C° 0 mm 2 mps 768 mmHg 34%
    12:00 +7°C° 0 mm 2 mps 768 mmHg 33%
    13:00 +8°C° 0 mm 2 mps 768 mmHg 32%
    14:00 +8°C° 0 mm 2 mps 767 mmHg 37%
    15:00 +8°C° 0 mm 2 mps 767 mmHg 41%
    16:00 +8°C° 0 mm 1 mps 767 mmHg 46%
    17:00 +7°C° 0 mm 1 mps 767 mmHg 48%
    18:00 +6°C° 0 mm 1 mps 767 mmHg 51%
    19:00 +5°C° 0 mm 1 mps 767 mmHg 53%
    20:00 +5°C° 0 mm 1 mps 767 mmHg 54%
    21:00 +5°C° 0 mm 1 mps 767 mmHg 55%
    22:00 +5°C° 0 mm 1 mps 767 mmHg 55%
    23:00 +5°C° 0 mm 1 mps 767 mmHg 56%

    25 February, Monday

    Time Temperature Precipitation Wind Pressure Humidity
    00:00 +5°C° 0 mm 1 mps 766 mmHg 57%
    01:00 +5°C° 0 mm 1 mps 766 mmHg 59%
    02:00 +5°C° 0 mm 1 mps 766 mmHg 60%
    03:00 +4°C° 0 mm 1 mps 766 mmHg 62%
    04:00 +4°C° 0 mm 1 mps 766 mmHg 64%
    05:00 +3°C° 0 mm 2 mps 766 mmHg 66%
    06:00 +2°C° 0 mm 2 mps 766 mmHg 69%
    07:00 +2°C° 0 mm 2 mps 766 mmHg 71%
    08:00 +2°C° 0 mm 3 mps 766 mmHg 68%
    09:00 +4°C° 0 mm 3 mps 767 mmHg 66%
    10:00 +5°C° 0 mm 3 mps 767 mmHg 64%
    11:00 +7°C° 0 mm 3 mps 767 mmHg 62%
    12:00 +8°C° 0 mm 3 mps 767 mmHg 60%
    13:00 +10°C° 0 mm 3 mps 766 mmHg 58%
    14:00 +10°C° 0 mm 3 mps 766 mmHg 60%
    15:00 +10°C° 0 mm 3 mps 766 mmHg 62%
    16:00 +10°C° 0 mm 3 mps 766 mmHg 65%
    17:00 +8°C° 0 mm 2 mps 766 mmHg 71%
    18:00 +7°C° 0 mm 2 mps 767 mmHg 77%
    19:00 +6°C° 0 mm 2 mps 767 mmHg 83%
    20:00 +5°C° 0 mm 2 mps 767 mmHg 85%
    21:00 +6°C° 0 mm 1 mps 767 mmHg 87%
    22:00 +6°C° 0 mm 1 mps 767 mmHg 89%
    23:00 +4°C° 0 mm 2 mps 766 mmHg 90%
    Show more